When you browse on this site, cookies collect data to enhance your experience and personalize the content and advertising you see.
Visit our Privacy Policy to learn more. By continuing to use the site, you agree to this use of cookies and data.
  • In France
  • List of Countries
  • For 7 days
  • Water Temperature
  • Satellite Maps
  • Weather Map
  • Weather Widgets
  • user-avatar
    Login

    Hourly Weather Vlesno

    Today, 20 November, Tuesday

    Time Temperature Precipitation Wind Pressure Humidity
    00:00 -1°C° 0 mm 1 mps 768 mmHg 84%
    01:00 -2°C° 0 mm 1 mps 767 mmHg 85%
    02:00 -2°C° 0 mm 1 mps 767 mmHg 89%
    03:00 -2°C° 0 mm 1 mps 767 mmHg 89%
    04:00 -3°C° 0 mm 1 mps 767 mmHg 90%
    05:00 -3°C° 0 mm 1 mps 766 mmHg 90%
    06:00 -3°C° 0 mm 1 mps 766 mmHg 89%
    07:00 -4°C° 0 mm 0 mps 766 mmHg 89%
    08:00 -4°C° 0 mm 0 mps 766 mmHg 88%
    09:00 -3°C° 0 mm 0 mps 766 mmHg 83%
    10:00 -2°C° 0 mm 0 mps 765 mmHg 78%
    11:00 -1°C° 0 mm 0 mps 765 mmHg 73%
    12:00 -1°C° 0 mm 0 mps 765 mmHg 71%
    13:00 0°C° 0 mm 1 mps 765 mmHg 69%
    14:00 0°C° 0 mm 1 mps 765 mmHg 67%
    15:00 0°C° 0 mm 1 mps 764 mmHg 71%
    16:00 -1°C° 0 mm 1 mps 764 mmHg 74%
    17:00 -1°C° 0 mm 1 mps 764 mmHg 78%
    18:00 -1°C° 0 mm 1 mps 764 mmHg 78%
    19:00 -1°C° 0 mm 1 mps 763 mmHg 78%
    20:00 -1°C° 0 mm 1 mps 763 mmHg 78%
    21:00 -1°C° 0 mm 1 mps 763 mmHg 79%
    22:00 -1°C° 0 mm 1 mps 763 mmHg 80%
    23:00 -2°C° 0 mm 1 mps 763 mmHg 81%

    Tomorrow, 21 November, Wednesday

    Time Temperature Precipitation Wind Pressure Humidity
    00:00 -1°C° 0 mm 1 mps 763 mmHg 83%
    01:00 -1°C° 0 mm 1 mps 763 mmHg 85%
    02:00 -1°C° 0 mm 1 mps 763 mmHg 87%
    03:00 -1°C° 0 mm 1 mps 763 mmHg 88%
    04:00 -1°C° 0 mm 1 mps 763 mmHg 90%
    05:00 0°C° 0 mm 1 mps 763 mmHg 91%
    06:00 0°C° 0 mm 1 mps 763 mmHg 92%
    07:00 0°C° 0 mm 1 mps 763 mmHg 92%
    08:00 0°C° 0 mm 1 mps 764 mmHg 93%
    09:00 +1°C° 0 mm 1 mps 764 mmHg 90%
    10:00 +1°C° 0 mm 1 mps 764 mmHg 87%
    11:00 +2°C° 0 mm 1 mps 764 mmHg 84%
    12:00 +2°C° 0 mm 1 mps 764 mmHg 83%
    13:00 +2°C° 0 mm 1 mps 764 mmHg 82%
    14:00 +2°C° 0 mm 1 mps 764 mmHg 81%
    15:00 +1°C° 0 mm 1 mps 764 mmHg 85%
    16:00 0°C° 0 mm 1 mps 764 mmHg 89%
    17:00 -1°C° 0 mm 1 mps 764 mmHg 93%
    18:00 -1°C° 0 mm 1 mps 764 mmHg 93%
    19:00 -1°C° 0 mm 1 mps 764 mmHg 94%
    20:00 -1°C° 0 mm 1 mps 764 mmHg 95%
    21:00 -2°C° 0 mm 1 mps 764 mmHg 94%
    22:00 -2°C° 0 mm 1 mps 764 mmHg 94%
    23:00 -2°C° 0 mm 1 mps 764 mmHg 94%

    Day after tomorrow, 22 November, Thursday

    Time Temperature Precipitation Wind Pressure Humidity
    00:00 -2°C° 0 mm 1 mps 763 mmHg 94%
    01:00 -4°C° 0 mm 2 mps 763 mmHg 94%
    02:00 -4°C° 0 mm 2 mps 763 mmHg 95%
    03:00 -4°C° 0 mm 2 mps 763 mmHg 94%
    04:00 -4°C° 0 mm 2 mps 762 mmHg 94%
    05:00 -4°C° 0 mm 2 mps 762 mmHg 93%
    06:00 -4°C° 0 mm 2 mps 762 mmHg 93%
    07:00 -4°C° 0 mm 2 mps 762 mmHg 92%
    08:00 -4°C° 0 mm 2 mps 761 mmHg 91%
    09:00 -4°C° 0 mm 3 mps 761 mmHg 87%
    10:00 -2°C° 0 mm 3 mps 761 mmHg 83%
    11:00 -2°C° 0 mm 3 mps 761 mmHg 78%
    12:00 -2°C° 0 mm 4 mps 760 mmHg 78%
    13:00 -2°C° 0 mm 4 mps 760 mmHg 78%
    14:00 -2°C° 0 mm 4 mps 760 mmHg 78%
    15:00 -2°C° 0 mm 4 mps 760 mmHg 82%
    16:00 -2°C° 0 mm 4 mps 760 mmHg 86%
    17:00 -2°C° 0 mm 3 mps 760 mmHg 90%
    18:00 -1°C° 0 mm 3 mps 760 mmHg 88%
    19:00 -1°C° 0 mm 3 mps 760 mmHg 87%
    20:00 0°C° 0 mm 3 mps 760 mmHg 86%
    21:00 -1°C° 0 mm 3 mps 760 mmHg 88%
    22:00 -1°C° 0 mm 2 mps 760 mmHg 89%
    23:00 -1°C° 0 mm 2 mps 760 mmHg 91%

    23 November, Friday

    Time Temperature Precipitation Wind Pressure Humidity
    00:00 -1°C° 0 mm 2 mps 760 mmHg 93%
    01:00 -2°C° 0 mm 2 mps 761 mmHg 94%
    02:00 -2°C° 0 mm 2 mps 761 mmHg 95%
    03:00 -2°C° 0 mm 2 mps 761 mmHg 95%
    04:00 +1°C° 0 mm 1 mps 761 mmHg 95%
    05:00 +1°C° 0 mm 1 mps 761 mmHg 94%
    06:00 +1°C° 0 mm 1 mps 761 mmHg 94%
    07:00 +1°C° 0 mm 1 mps 761 mmHg 94%
    08:00 +1°C° 0 mm 1 mps 762 mmHg 94%
    09:00 +1°C° 0 mm 1 mps 762 mmHg 92%
    10:00 -1°C° 0 mm 2 mps 762 mmHg 90%
    11:00 +1°C° 0 mm 2 mps 762 mmHg 88%
    12:00 +1°C° 0 mm 2 mps 762 mmHg 87%
    13:00 +1°C° 0 mm 2 mps 761 mmHg 87%
    14:00 +1°C° 0 mm 2 mps 761 mmHg 86%
    15:00 0°C° 0 mm 3 mps 761 mmHg 86%
    16:00 -1°C° 0 mm 3 mps 761 mmHg 87%
    17:00 -1°C° 0 mm 3 mps 761 mmHg 87%
    18:00 -1°C° 0 mm 3 mps 760 mmHg 87%
    19:00 -1°C° 0 mm 3 mps 760 mmHg 86%
    20:00 -1°C° 0 mm 3 mps 760 mmHg 86%
    21:00 -1°C° 0 mm 3 mps 759 mmHg 86%
    22:00 -2°C° 0 mm 3 mps 759 mmHg 85%
    23:00 -3°C° 0 mm 4 mps 759 mmHg 85%

    24 November, Saturday

    Time Temperature Precipitation Wind Pressure Humidity
    00:00 -2°C° 0 mm 3 mps 758 mmHg 85%
    01:00 -4°C° 0 mm 3 mps 758 mmHg 86%
    02:00 -4°C° 0 mm 3 mps 758 mmHg 86%
    03:00 -4°C° 0 mm 3 mps 757 mmHg 85%
    04:00 -5°C° 0 mm 3 mps 756 mmHg 84%
    05:00 -5°C° 0 mm 3 mps 756 mmHg 84%
    06:00 -5°C° 0 mm 3 mps 756 mmHg 83%
    07:00 -5°C° 0 mm 3 mps 755 mmHg 83%
    08:00 -5°C° 0 mm 3 mps 755 mmHg 83%
    09:00 -4°C° 0 mm 3 mps 755 mmHg 82%
    10:00 -4°C° 0 mm 3 mps 755 mmHg 81%
    11:00 -2°C° 0 mm 3 mps 755 mmHg 79%
    12:00 -2°C° 0 mm 3 mps 754 mmHg 80%
    13:00 -2°C° 0 mm 2 mps 754 mmHg 80%
    14:00 -1°C° 0 mm 2 mps 754 mmHg 80%
    15:00 -2°C° 0 mm 2 mps 754 mmHg 81%
    16:00 -2°C° 0 mm 2 mps 754 mmHg 83%
    17:00 -2°C° 0 mm 2 mps 754 mmHg 84%
    18:00 -2°C° 0 mm 2 mps 754 mmHg 85%
    19:00 0°C° 0 mm 1 mps 754 mmHg 86%
    20:00 0°C° 0 mm 1 mps 754 mmHg 87%
    21:00 0°C° 0 mm 1 mps 754 mmHg 88%
    22:00 0°C° 0 mm 1 mps 754 mmHg 89%
    23:00 0°C° 0 mm 1 mps 755 mmHg 90%

    25 November, Sunday

    Time Temperature Precipitation Wind Pressure Humidity
    00:00 0°C° 0 mm 1 mps 755 mmHg 90%
    01:00 0°C° 0 mm 1 mps 755 mmHg 91%
    02:00 0°C° 0 mm 1 mps 755 mmHg 92%
    03:00 0°C° 0 mm 1 mps 755 mmHg 92%
    04:00 0°C° 0 mm 1 mps 755 mmHg 92%
    05:00 0°C° 0 mm 1 mps 755 mmHg 92%
    06:00 0°C° 0 mm 1 mps 755 mmHg 92%
    07:00 0°C° 0 mm 1 mps 755 mmHg 91%
    08:00 0°C° 0 mm 1 mps 755 mmHg 91%
    09:00 0°C° 0 mm 1 mps 755 mmHg 88%
    10:00 0°C° 0 mm 1 mps 755 mmHg 85%
    11:00 +1°C° 0 mm 1 mps 756 mmHg 82%
    12:00 +1°C° 0 mm 1 mps 755 mmHg 81%
    13:00 +1°C° 0 mm 1 mps 755 mmHg 81%
    14:00 +1°C° 0 mm 1 mps 755 mmHg 80%
    15:00 0°C° 0 mm 1 mps 755 mmHg 82%
    16:00 0°C° 0 mm 1 mps 755 mmHg 84%
    17:00 -1°C° 0 mm 1 mps 755 mmHg 86%
    18:00 -1°C° 0 mm 1 mps 755 mmHg 86%
    19:00 -2°C° 0 mm 0 mps 755 mmHg 85%
    20:00 -2°C° 0 mm 0 mps 755 mmHg 84%
    21:00 -2°C° 0 mm 0 mps 754 mmHg 84%
    22:00 -2°C° 0 mm 0 mps 754 mmHg 84%
    23:00 -3°C° 0 mm 0 mps 754 mmHg 84%
    Show more